Torna al catalogo

STARLINK-5930

AttivoComunicazioniVLEO
NORAD 55928·PAYLOAD·🇺🇸 United States

Lanciato Mar 17, 2023 da Vandenberg Space Force Base

Loading…

Prossimi Passaggi (prossime 24 ore)

TLE

AggiornatoSource: CelesTrak SupGP

Epoca: Sep 15, 2026, 02:03 UTC

1 55928C 23037Q   26258.08590278 -.00007198  00000+0 -60324-3 0  2588
2 55928  70.0022 186.7685 0003043 272.5799 339.9909 14.98333789    12

Traccia STARLINK-5930 in tempo reale con AllMySat

Download on the App Store